This demonstration page uses our WeatherBlox Daily Observations layout. Learn more.

Left ArrowRight Arrow

Hourly Observations for August 10, 2015

Temp ( °F °C ) Dew Point ( °F °C ) Humidity (%) Winds ( mph kmh ) Pressure ( in mb ) Visibility ( mi km ) Precip ( " mm )
12:53 am 00:53 Clear 87 30.6 57 13.9 36 36 SE 5 7 29.82 1010 10 16 0.00 0.00
1:53 am 01:53 Clear 86 30 57 13.9 37 37 SE 9 15 29.81 1010 10 16 0.00 0.00
2:53 am 02:53 Clear 83 28.3 59 15 44 44 SE 10 17 29.81 1009 10 16 0.00 0.00
3:53 am 03:53 Clear 81 27.2 59 15 47 47 SE 12 19 29.80 1009 10 16 0.00 0.00
4:53 am 04:53 Clear 80 26.7 58 14.4 47 47 SE 15 24 29.79 1009 10 16 0.00 0.00
5:53 am 05:53 Clear 79 26.1 58 14.4 49 49 SE 10 17 29.81 1009 10 16 0.00 0.00
6:53 am 06:53 Clear 77 25 59 15 54 54 SE 13 20 29.83 1010 10 16 0.00 0.00
7:53 am 07:53 Sunny 78 25.6 59 15 52 52 SE 10 17 29.84 1010 10 16 0.00 0.00
8:53 am 08:53 Sunny 82 27.8 61 16.1 49 49 SSE 13 20 29.85 1011 10 16 0.00 0.00
9:53 am 09:53 Sunny 84 28.9 60 15.6 44 44 SSE 7 11 29.86 1011 10 16 0.00 0.00
10:53 am 10:53 Sunny 89 31.7 61 16.1 39 39 ESE 5 7 29.86 1011 10 16 0.00 0.00
11:53 am 11:53 Sunny 92 33.3 61 16.1 36 36 VRB 5 7 29.85 1011 10 16 0.00 0.00
12:53 pm 12:53 Sunny 97 36.1 62 16.7 32 32 ESE 12 19 29.84 1011 10 16 0.00 0.00
1:53 pm 13:53 Sunny 100 37.8 60 15.6 27 27 E 16 26 29.83 1010 10 16 0.00 0.00
2:53 pm 14:53 Sunny 101 38.3 50 10 18 18 VRB 7 11 29.80 1009 10 16 0.00 0.00
3:53 pm 15:53 Sunny 103 39.4 46 7.8 15 15 E 15 24 29.78 1008 10 16 0.00 0.00
4:53 pm 16:53 Sunny 103 39.4 43 6.1 13 13 ESE 9 15 29.75 1008 10 16 0.00 0.00
5:53 pm 17:53 Sunny 103 39.4 47 8.3 15 15 E 15 24 29.75 1008 10 16 0.00 0.00
6:53 pm 18:53 Sunny 102 38.9 47 8.3 15 15 ESE 14 22 29.74 1007 10 16 0.00 0.00
7:53 pm 19:53 Sunny 99 37.2 48 8.9 18 18 E 17 28 29.74 1007 10 16 0.00 0.00
8:53 pm 20:53 Clear 96 35.6 47 8.3 19 19 ESE 15 24 29.76 1008 10 16 0.00 0.00
9:53 pm 21:53 Clear 91 32.8 47 8.3 22 22 E 8 13 29.80 1009 10 16 0.00 0.00
10:53 pm 22:53 Clear 86 30 46 7.8 25 25 E 7 11 29.84 1010 10 16 0.00 0.00
11:53 pm 23:53 Clear 83 28.3 45 7.2 26 26 E 7 11 29.85 1011 10 16 0.00 0.00

Powered by AerisWeather